Tracking 28356 objects as of 7-Dec-2023
HD Live streaming from Space Station
objects crossing your sky now

STARLINK-30851

Track STARLINK-30851 now!
10-day predictions
STARLINK-30851 is classified as:


NORAD ID: 58215
Int'l Code: 2023-170K
Perigee: 524.0 km
Apogee: 526.4 km
Inclination: 43.0 °
Period: 95.0 minutes
Semi major axis: 6896 km
RCS: Unknown
Launch date: November 3, 2023
Source: United States (US)
Launch site: AIR FORCE EASTERN TEST RANGE (AFETR)
Your satellite tracking list
Your tracking list is empty




NASA's NSSDC Master Catalog

Two Line Element Set (TLE):
1 58215U 23170K   23341.41528458  .00001814  00000-0  10471-3 0  9994
2 58215  42.9997 351.4016 0001703 281.1972  78.8684 15.15954643  6419
Source of the keplerian elements: AFSPC